Location: Unspecified
(48.9106°N, 0.0000°E)
Time: 10:36:07
(UTC+00:00)

S-56A Canister/Altair - All Passes

Search period start: 04 April 2026 00:00
Search period end: 14 April 2026 00:00
Orbit: 632 x 2485 km, 38.9° (Epoch: 28 March)

Date Brightness Start Highest point End Pass type
(mag) Time Alt. Az. Time Alt. Az. Time Alt. Az.
4 Apr - 06:05:20 10° SSE 06:12:42 16° SE 06:20:07 10° E daylight
4 Apr - 08:03:31 10° SSW 08:16:21 37° SSE 08:28:23 10° E daylight
4 Apr - 10:07:02 10° WSW 10:21:20 53° S 10:33:08 10° E daylight
4 Apr - 12:12:48 10° W 12:26:20 50° SSW 12:36:27 10° ESE daylight
4 Apr - 14:19:47 10° W 14:29:59 29° SW 14:37:40 10° SSE daylight
5 Apr - 05:32:04 10° SSE 05:37:28 13° SE 05:42:57 10° ESE daylight
5 Apr - 07:28:27 10° SSW 07:40:47 34° SSE 07:52:49 10° E daylight
5 Apr - 09:31:24 10° WSW 09:45:39 52° SSE 09:57:58 10° E daylight
5 Apr - 11:36:51 10° W 11:50:50 53° S 12:01:38 10° ESE daylight
5 Apr - 13:43:35 10° W 13:54:52 34° SW 14:03:22 10° SSE daylight
5 Apr - 15:55:33 10° WSW 15:56:54 10° SW 15:58:12 10° SW daylight
6 Apr - 05:01:41 10° SE 05:02:19 10° SE 05:02:55 10° ESE visible
6 Apr - 06:53:34 10° SSW 07:05:17 31° SE 07:17:07 10° E daylight
6 Apr - 08:55:53 10° SW 09:09:57 51° SSE 09:22:42 10° E daylight
6 Apr - 11:00:58 10° WSW 11:15:16 55° S 11:26:42 10° ESE daylight
6 Apr - 13:07:27 10° W 13:19:39 38° SSW 13:28:55 10° SSE daylight
6 Apr - 15:16:49 10° W 15:22:05 14° SW 15:26:39 10° SSW daylight
7 Apr - 06:18:52 10° S 06:29:49 28° SE 06:41:15 10° E daylight
7 Apr - 08:20:28 10° SW 08:34:15 49° SSE 08:47:19 10° E daylight
7 Apr - 10:25:10 10° WSW 10:39:37 56° S 10:51:40 10° ESE daylight
7 Apr - 12:31:23 10° W 12:44:20 42° SSW 12:54:20 10° SE daylight
7 Apr - 14:39:45 10° W 14:47:10 18° SW 14:53:22 10° SSW daylight
8 Apr - 05:44:22 10° S 05:54:25 25° SE 06:05:12 10° E daylight
8 Apr - 07:45:12 10° SW 07:58:34 46° SSE 08:11:51 10° E daylight
8 Apr - 09:49:27 10° WSW 10:03:54 56° S 10:16:32 10° ESE daylight
8 Apr - 11:55:22 10° W 12:08:55 45° SSW 12:19:38 10° SE daylight
8 Apr - 14:03:06 10° W 14:12:10 22° SW 14:19:36 10° S daylight
9 Apr - 05:10:06 10° S 05:19:07 22° SE 05:28:55 10° E daylight
9 Apr - 07:10:03 10° SW 07:22:54 44° SSE 07:36:15 10° E daylight
9 Apr - 09:13:49 10° WSW 09:28:09 56° S 09:41:18 10° ESE daylight
9 Apr - 11:19:27 10° W 11:33:23 48° SSW 11:44:48 10° SE daylight
9 Apr - 13:26:39 10° W 13:37:04 26° SW 13:45:32 10° S daylight
10 Apr - 04:36:10 10° SSE 04:43:53 18° SE 04:52:21 10° E visible
10 Apr - 06:35:03 10° SW 06:47:18 41° SSE 07:00:33 10° E daylight
10 Apr - 08:38:19 10° WSW 08:52:23 56° S 09:05:58 10° ESE daylight
10 Apr - 10:43:36 10° W 10:57:48 51° SSW 11:09:52 10° SE daylight
10 Apr - 12:50:23 10° W 13:01:52 30° SW 13:11:16 10° SSE daylight
11 Apr - 04:02:42 10° SSE 04:08:45 15° SE 04:15:20 10° E visible
11 Apr - 06:00:11 10° SSW 06:11:45 37° SSE 06:24:43 10° E daylight
11 Apr - 08:02:55 10° WSW 08:16:37 55° S 08:30:31 10° E daylight
11 Apr - 10:07:51 10° W 10:22:07 53° SSW 10:34:49 10° ESE daylight
11 Apr - 12:14:14 10° W 12:26:34 34° SW 12:36:48 10° SSE daylight
11 Apr - 14:26:03 10° WSW 14:28:58 11° WSW 14:31:44 10° SW daylight
12 Apr - 03:30:20 10° SE 03:33:42 11° ESE 03:37:14 10° ESE visible
12 Apr - 05:25:29 10° SSW 05:36:17 34° SE 05:48:46 10° E daylight
12 Apr - 07:27:38 10° WSW 07:40:52 53° SSE 07:54:57 10° E daylight
12 Apr - 09:32:11 10° W 09:46:23 55° S 09:59:38 10° ESE daylight
12 Apr - 11:38:12 10° W 11:51:09 37° SSW 12:02:10 10° SSE daylight
12 Apr - 13:47:44 10° W 13:53:59 14° SW 13:59:37 10° SSW daylight
13 Apr - 04:50:56 10° SSW 05:00:55 30° SE 05:12:41 10° E daylight
13 Apr - 06:52:28 10° SW 07:05:09 51° SSE 07:19:17 10° E daylight
13 Apr - 08:56:37 10° WSW 09:10:37 56° S 09:24:20 10° ESE daylight
13 Apr - 11:02:17 10° W 11:15:39 41° SSW 11:27:24 10° SE daylight
13 Apr - 13:10:38 10° W 13:18:54 18° SW 13:26:15 10° SSW daylight
